Printer-friendly version

IAU Minor Planet Center

Minor Planet Center

MPEC 2004-V12 : 2000 QK130

The following Minor Planet Electronic Circular may be linked-to from your own Web pages, but must not otherwise be redistributed electronically.


Read MPEC 2004-V11 Read MPEC 2004-V13


M.P.E.C. 2004-V12                                Issued 2004 Nov. 3, 18:10 UT

     The Minor Planet Electronic Circulars contain information on unusual
         minor planets and routine data on comets.  They are published
   on behalf of Commission 20 of the International Astronomical Union by the
          Minor Planet Center, Smithsonian Astrophysical Observatory,
                          Cambridge, MA 02138, U.S.A.

                  Supported in part by the Brinson Foundation
             Prepared using the Tamkin Foundation Computer Network

                              MPC@CFA.HARVARD.EDU
          URL http://cfa-www.harvard.edu/iau/mpc.html  ISSN 1523-6714

                                  2000 QK130

                           Revision to MPEC 2000-R09

Additional Observations:
     K00QD0K  C2004 10 23.44889 04 18 03.36 +11 35 02.2                 EV012F65
     K00QD0K  C2004 10 23.45028 04 18 03.21 +11 35 01.3                 EV012F65
     K00QD0K  C2004 10 23.45168 04 18 03.09 +11 35 00.3                 EV012F65
     K00QD0K  C2004 11 02.44252 04 00 39.19 +09 25 22.2                 EV012F65
     K00QD0K  C2004 11 02.44374 04 00 39.02 +09 25 20.9                 EV012F65
     K00QD0K  C2004 11 02.44490 04 00 38.90 +09 25 20.2                 EV012F65

Observer details:
F65 Haleakala-Faulkes Telescope North.  Observers A. Fitzsimmons, S. C. Lowry,
    C. Snodgrass, L. O'Donnell.  2.0-m f/10.0 reflector + CCD.

First and last observations above in comparison with prediction:
Residuals in seconds of arc, reference and Delta-T
041023 F65  8.8+  1.4+    041102 F65 10.2+  2.0+    MPO  8483   -0.0026 day

Orbital elements:
2000 QK130                                                           PHA 0.002
Epoch 2005 Jan. 30.0 TT = JDT 2453400.5                 MPC
M 226.18562              (2000.0)            P               Q
n   0.76819875     Peri.   66.25394     -0.49531143     +0.86867339
a   1.1807383      Node   174.03449     -0.82398976     -0.46666960
e   0.2618241      Incl.    4.71995     -0.27514989     -0.16621081
P   1.28           H   20.9           G   0.15           U   2
Residuals in seconds of arc
000809 704  0.0   0.2-    000901 151  0.3+  0.3-    000903 704  1.0+  0.2+
000809 704  0.1+  0.4-    000901 151  0.8-  0.9-    000904 587  0.5-  1.1+
000809 704  0.1-  0.1-    000901 595  0.0   0.2-    000904 587  0.0   1.1+
000809 704  0.0   0.3+    000901 151  0.3+  0.5-    000905 587  0.1-  0.9-
000809 704  0.2+  0.3+    000901 557  0.1-  0.4-    000905 587  0.6+  0.7-
000831 704  0.1-  0.3+    000901 557  0.1+  0.3-    000905 595  0.5-  0.4-
000831 704  0.1+  0.7+    000901 595  0.4-  0.7-    000905 595  0.1+  0.0
000831 704  0.3-  0.6+    000901 595  0.1-  0.6-    000905 595  0.2+  0.5+
000831 704  0.0   0.6+    000901 118  0.5+  0.3-    000905 595  0.7-  1.4+
000831 704  0.2-  0.5+    000901 118  0.3+  0.1-    000908 046  0.4+  0.1-
000831 557  0.2+  0.4+    000901 118  0.1-  0.4-    000908 046  0.4+  0.0
000831 557  0.2-  0.4-    000901 106  0.5-  0.1-    000908 046  0.3-  0.2-
000831 557  0.6-  0.3+    000901 587  0.1+  0.2-    000908 046  0.0   0.3+
000901 704  0.1+  0.0     000901 587  0.3-  0.1+    000908 046  0.2+  0.2+
000901 704  0.1-  0.3+    000901 106  0.1+  0.3-    000909 046  0.3+  0.1-
000901 704  0.1+  0.3-    000901 106  0.1+  0.2+    000909 046  0.1+  0.7+
000901 704  0.0   0.0     000902 711  0.6-  0.1+    000909 046  0.8+  1.0+
000901 704  0.1-  0.3-    000902 711  0.7-  0.1+    000909 046  1.0+  0.3-
000901 704  0.1+  0.2+    000902 711  0.5-  0.1-    000919 413  0.1+  0.1-
000901 711  0.2-  0.4-    000902 422  0.3+  1.1-    000919 413  0.3+  0.2-
000901 711  0.4-  0.2-    000902 422  0.3+  0.7-    000919 413  0.3+  0.4-
000901 711  0.3-  0.1-    000902 422  0.1+  0.7-    000921 853  0.2+  0.3+
000901 704  0.3+  0.0     000902 413  0.4+  0.3-    000921 853  0.2-  0.3+
000901 704  0.1-  0.1-    000902 413  0.2+  0.3-    000921 853  0.0   0.1+
000901 704  0.2-  0.2+    000903 704  0.7+  0.8+    000921 587  1.4+  0.5-
000901 704  0.0   0.2+    000903 704  0.5-  0.3+    000921 587  0.9+  0.5-
000901 704  0.1-  0.0     000903 704  0.7-  1.0+    000921 587  0.1+  0.6-
000901 704  0.4+  0.3+    000903 704  0.3-  0.1+    001001 858  0.7+  0.2-
000901 704  0.2+  0.2+    000903 704  0.1+  0.1+    001001 858  0.4-  0.2-
000901 704  0.2-  0.0     000903 704  0.5-  0.8-    001001 858  0.1+  0.7+
000901 704  0.1-  0.1+    000903 704  0.1-  0.6+    001130 568  0.5-  0.5-
000901 046  1.0+  0.4-    000903 704  0.1+  0.3-    001130 568  0.1-  0.1-
000901 046  0.7-  0.6+    000903 704  0.0   0.5-    001201 568  0.3+  0.4+
000901 046  0.1-  0.9+    000903 704  0.4-  0.1+    001201 568  0.1+  0.2+
000901 046  0.3-  0.4-    000903 704  0.1-  0.2+    041023 F65  0.1+  0.3-
000901 046  1.0-  0.0     000903 704  0.0   0.3+    041023 F65  0.2-  0.2-
000901 046  0.2-  0.8-    000903 704  0.4+  0.0     041023 F65  0.1-  0.1-
000901 151  0.2+  0.6+    000903 704  0.2+  0.1+    041102 F65  0.1+  0.1+
000901 151  0.6+  0.5-    000903 704  0.0   0.7+    041102 F65  0.1-  0.3-
000901 151  0.3-  0.3-    000903 704  0.2+  0.3-    041102 F65  0.3+  0.0

Ephemeris:
2000 QK130               a,e,i = 1.18, 0.26, 5                   q = 0.8716
Date    TT    R. A. (2000) Decl.     Delta      r     Elong.  Phase     V
2004 11 01    04 03.51   +09 44.5    0.512    1.474   155.7    16.1    21.2
2004 11 11    03 42.05   +07 35.3    0.502    1.483   166.8     8.8    20.9
2004 11 21    03 19.37   +05 46.7    0.513    1.488   164.3    10.3    21.0
2004 12 01    02 59.66   +04 37.1    0.545    1.490   152.3    17.9    21.4
2004 12 11    02 45.60   +04 12.8    0.594    1.488   139.7    25.3    21.8

Timothy B. Spahr             (C) Copyright 2004 MPC           M.P.E.C. 2004-V12

Read MPEC 2004-V11 Read MPEC 2004-V13


Our Web policy. Index to the CBAT/MPC/ICQ pages.


Valid HTML 4.01!